IRIDIUM 171

Last updated on Tue Sep 22 2026 00:03:21 GMT+0000 (Coordinated Universal Time)

1 43929U 19002H 26263.88373744 .00000075 00000+0 19841-4 0 9990 2 43929 86.3979 313.9067 0002137 93.4919 266.6521 14.34218016402675
UTC large
Height (km)
Speed (km/s)
/
Latitude / Longitude
Inclination (degrees)
Orbital Period (minutes)
Azimuth
Elevation
Range (km)
Doppler Factor

Next 0 passes for location: London (51.5072 / 0.1276)

No passes found over London.
IRIDIUM 171